Cloud_Cover
100 100 100 100 100 100 100 100 100 58 40 100 100 100 100 89 18 2 13 42 99 26 3 9 40 91 56 76 75 96 100 100 100 100 100 100 100 100 100 100 100 100 100 100
100 100 100 100 100 100 100 77 17 10 25 100 100 100 24 5 5 5 60 100 24 32 5 5 31 70 100 100 100 100 100 100 100 100 100 100 100 100 100 100 100 100 100 100
100 100 100 100 100 100 100 100 100 100 100 100 100 100 100 47 42 96 99 28 3 4 63 51 53 100 100 100 100 100 100 100 100 100 100 100 100 100 100 100 100 100 100 100
100 100 100 100 100 92 100 100 100 100 100 100 100 100 100 100 100 100 36 5 3 5 39 100 100 100 100 100 100 100 100 100 100 100 100 100 100 100 100 100 100 100 100 100
60 100 100 100 100 100 100 100 100 100 100 100 100 100 100 100 100 100 34 53 98 100 100 100 100 100 100 100 100 100 100 100 100 100 100 100 100 100 100 100 100 100 100 100
100 39 48 14 100 100 100 100 100 100 100 100 100 100 100 100 100 100 100 100 100 100 100 100 100 100 100 100 100 100 100 100 100 100 100 100 100 100 100 100 100 100 100 100
2 18 5 6 100 100 100 100 100 100 100 100 100 100 100 100 100 100 100 100 100 100 100 100 100 100 100 100 100 100 100 100 100 100 100 100 100 100 100 100 100 100 100 100
55 88 16 2 100 100 100 100 100 100 100 100 100 100 100 100 100 100 100 100 100 100 100 100 100 100 100 100 100 100 100 100 100 100 100 100 100 100 100 100 100 100 100 100
37 11 0 10 5 96 83 61 100 100 100 100 100 100 100 100 100 100 100 100 100 100 100 100 100 100 100 100 100 100 100 100 100 100 100 100 100 100 100 100 100 100 100 100
100 96 3 5 74 61 79 15 5 5 63 100 100 100 100 100 100 100 100 100 100 100 100 100 97 100 100 100 100 100 100 100 100 100 100 100 100 100 100 100 100 100 100 100
66 72 50 56 87 100 81 66 5 12 5 17 83 94 76 53 75 80 54 60 77 94 100 100 100 100 100 100 100 100 100 100 100 100 100 100 100 100 100 100 100 100 100 100
15 62 100 5 9 10 10 71 97 47 6 5 5 12 28 56 54 69 22 77 21 99 100 100 100 100 100 100 100 100 100 100 100 100 100 100 100 100 100 100 100 100 100 100
100 43 69 95 98 99 100 93 89 58 99 58 97 62 100 87 100 100 100 95 99 100 100 100 100 100 100 100 100 100 100 100 100 100 100 99 75 73 100 96 100 97 100 100
98 100 100 100 100 68 100 75 35 84 90 100 100 100 100 90 100 100 100 94 100 100 100 100 100 100 100 100 100 100 100 100 100 100 100 100 69 12 7 5 30 5 14 66
100 100 100 84 100 100 100 100 100 100 96 100 97 100 100 100 100 100 100 100 100 100 100 100 100 100 100 100 100 100 100 99 100 67 26 37 77 29 49 33 50 94 99 46
100 100 100 100 100 100 100 100 100 100 100 100 100 100 100 100 100 100 100 100 100 100 100 100 100 100 100 100 100 100 100 100 94 46 21 88 80 82 100 99 98 100 100 89
100 100 100 100 100 100 89 88 100 90 97 100 100 100 100 100 100 100 100 100 100 100 100 100 100 100 100 100 100 84 87 100 100 100 81 100 100 100 100 100 100 100 100 96
100 100 100 100 100 100 100 98 100 100 100 100 100 100 100 100 100 100 100 100 100 100 100 100 100 100 100 100 100 100 100 80 51 100 100 100 100 100 100 100 100 100 100 98
100 100 100 100 100 100 100 100 100 100 100 100 100 100 100 100 100 100 100 100 100 100 100 100 100 100 100 100 100 100 75 52 90 100 100 100 100 100 100 100 100 100 96 100
100 100 100 100 100 100 100 100 100 100 100 100 100 100 100 100 100 100 100 100 100 100 100 100 100 100 100 100 85 25 37 89 100 100 100 100 100 100 100 100 100 100 100 100
100 100 100 100 100 100 100 100 100 100 100 100 100 100 100 100 100 100 100 100 100 100 100 100 100 100 100 98 55 28 78 100 100 100 100 100 100 100 100 100 100 100 100 100
100 100 100 100 100 100 100 100 100 100 100 100 100 100 100 100 100 100 100 98 100 100 100 97 93 100 38 22 5 71 95 100 100 100 100 100 100 100 100 100 100 100 100 100
100 100 100 100 100 100 100 100 100 100 100 100 100 100 100 100 100 100 100 97 100 100 100 71 22 5 1 5 9 56 74 100 100 100 100 100 100 100 100 100 100 100 100 100
100 100 100 100 100 100 100 100 100 100 100 100 100 100 98 96 100 100 100 100 100 93 20 87 44 5 5 74 83 100 88 100 100 100 100 100 100 100 100 100 100 100 100 100
80 43 6 6 35 85 100 62 81 82 57 45 39 7 7 34 39 99 100 100 77 8 9 14 5 5 80 96 100 100 100 100 100 100 100 100 100 100 100 97 95 100 100 100
100 100 100 98 87 94 70 98 100 100 78 96 99 62 27 76 100 100 94 57 92 88 23 100 87 87 100 100 100 100 90 99 100 100 100 100 100 100 100 97 78 100 100 100
81 100 100 100 100 100 100 100 100 100 69 79 94 100 99 99 85 87 100 98 100 63 98 94 100 85 50 99 100 89 94 98 100 100 100 100 100 100 100 96 98 100 100 100